Location: Boston
(42.3580°N, 71.0600°W)
Time: 08:21:19
(UTC-04:00)

ISS - Visible Passes

Search period start: 21 October 2017 00:00
Search period end: 31 October 2017 00:00
Orbit: 401 x 408 km, 51.6° (Epoch: 22 October)

Date Brightness Start Highest point End Pass type
(mag) Time Alt. Az. Time Alt. Az. Time Alt. Az.
27 Oct -0.7 06:31:47 10° SSE 06:33:31 14° SE 06:35:16 10° E visible
29 Oct -2.0 06:21:56 10° SSW 06:24:51 31° SE 06:27:47 10° ENE visible
30 Oct -1.0 05:30:24 10° S 05:32:35 17° SE 05:34:47 10° E visible
